Location: Taschereau
(48.6670°N, 78.7000°W)
Time: 02:16:59
(UTC-04:00)

ISS - Pass Details

Date: 25 April 2021
Orbit: 417 x 422 km, 51.6° (Epoch: 14 May)

Event Time Altitude Azimuth Distance (km) Brightness Sun altitude
Exits shadow 05:10:25 - 186° (S) 2,231 -0.4 -8.9°
Reaches altitude 10° 05:13:28 10° 151° (SSE) 1,499 -1.0 -8.4°
Maximum altitude 05:14:26 11° 134° (SE) 1,442 -0.8 -8.3°
Drops below altitude 10° 05:15:25 10° 117° (ESE) 1,502 -0.5 -8.2°
Sets 05:18:51 0° 80° (E) 2,374 1.6 -7.7°
